Year,Month,Day,Hour,Minute,Value (Times are PST for temperature in C)
2020,05,29,00,00,13.80
2020,05,29,00,01,13.80
2020,05,29,00,02,13.80
2020,05,29,00,03,13.80
2020,05,29,00,04,13.80
2020,05,29,00,05,13.90
2020,05,29,00,06,13.90
2020,05,29,00,07,13.90
2020,05,29,00,08,13.90
2020,05,29,00,09,13.90
2020,05,29,00,10,13.90
2020,05,29,00,11,13.90
2020,05,29,00,12,13.90
2020,05,29,00,13,13.90
2020,05,29,00,14,13.90
2020,05,29,00,15,13.90
2020,05,29,00,16,13.80
2020,05,29,00,17,13.80
2020,05,29,00,18,13.80
2020,05,29,00,19,13.80
2020,05,29,00,20,13.80
2020,05,29,00,21,13.70
2020,05,29,00,22,13.70
2020,05,29,00,23,13.70
2020,05,29,00,24,13.60
2020,05,29,00,25,13.60
2020,05,29,00,26,13.60
2020,05,29,00,27,13.60
2020,05,29,00,28,13.50
2020,05,29,00,29,13.50
2020,05,29,00,30,13.50
2020,05,29,00,31,13.40
2020,05,29,00,32,13.40
2020,05,29,00,33,13.40
2020,05,29,00,34,13.40
2020,05,29,00,35,13.40
2020,05,29,00,36,13.40
2020,05,29,00,37,13.40
2020,05,29,00,38,13.40
2020,05,29,00,39,13.40
2020,05,29,00,40,13.40
2020,05,29,00,41,13.40
2020,05,29,00,42,13.30
2020,05,29,00,43,13.30
2020,05,29,00,44,13.30
2020,05,29,00,45,13.30
2020,05,29,00,46,13.30
2020,05,29,00,47,13.30
2020,05,29,00,48,13.30
2020,05,29,00,49,13.30
2020,05,29,00,50,13.30
2020,05,29,00,51,13.30
2020,05,29,00,52,13.30
2020,05,29,00,53,13.40
2020,05,29,00,54,13.40
2020,05,29,00,55,13.40
2020,05,29,00,56,13.40
2020,05,29,00,57,13.40
2020,05,29,00,58,13.40
2020,05,29,00,59,13.40
2020,05,29,01,00,13.40
2020,05,29,01,01,13.50
2020,05,29,01,02,13.50
2020,05,29,01,03,13.60
2020,05,29,01,04,13.60
2020,05,29,01,05,13.70
2020,05,29,01,06,13.70
2020,05,29,01,07,13.80
2020,05,29,01,08,13.80
2020,05,29,01,09,13.80
2020,05,29,01,10,13.80
2020,05,29,01,11,13.80
2020,05,29,01,12,13.80
2020,05,29,01,13,13.80
2020,05,29,01,14,13.80
2020,05,29,01,15,13.80
2020,05,29,01,16,13.80
2020,05,29,01,17,13.90
2020,05,29,01,18,13.90
2020,05,29,01,19,13.90
2020,05,29,01,20,13.80
2020,05,29,01,21,13.80
2020,05,29,01,22,13.80
2020,05,29,01,23,13.80
2020,05,29,01,24,13.80
2020,05,29,01,25,13.80
2020,05,29,01,26,13.70
2020,05,29,01,27,13.70
2020,05,29,01,28,13.70
2020,05,29,01,29,13.70
2020,05,29,01,30,13.70
2020,05,29,01,31,13.70
2020,05,29,01,32,13.70
2020,05,29,01,33,13.70
2020,05,29,01,34,13.70
2020,05,29,01,35,13.80
2020,05,29,01,36,13.80
2020,05,29,01,37,13.80
2020,05,29,01,38,13.80
2020,05,29,01,39,13.80
2020,05,29,01,40,13.80
2020,05,29,01,41,13.80
2020,05,29,01,42,13.70
2020,05,29,01,43,13.70
2020,05,29,01,44,13.70
2020,05,29,01,45,13.70
2020,05,29,01,46,13.70
2020,05,29,01,47,13.70
2020,05,29,01,48,13.70
2020,05,29,01,49,13.70
2020,05,29,01,50,13.60
2020,05,29,01,51,13.60
2020,05,29,01,52,13.60
2020,05,29,01,53,13.60
2020,05,29,01,54,13.60
2020,05,29,01,55,13.60
2020,05,29,01,56,13.50
2020,05,29,01,57,13.50
2020,05,29,01,58,13.50
2020,05,29,01,59,13.50
2020,05,29,02,00,13.50
2020,05,29,02,01,13.40
2020,05,29,02,02,13.40
2020,05,29,02,03,13.40
2020,05,29,02,04,13.40
2020,05,29,02,05,13.40
2020,05,29,02,06,13.40
2020,05,29,02,07,13.40
2020,05,29,02,08,13.40
2020,05,29,02,09,13.50
2020,05,29,02,10,13.50
2020,05,29,02,11,13.50
2020,05,29,02,12,13.50
2020,05,29,02,13,13.50
2020,05,29,02,14,13.50
2020,05,29,02,15,13.50
2020,05,29,02,16,13.50
2020,05,29,02,17,13.60
2020,05,29,02,18,13.60
2020,05,29,02,19,13.60
2020,05,29,02,20,13.60
2020,05,29,02,21,13.60
2020,05,29,02,22,13.60
2020,05,29,02,23,13.60
2020,05,29,02,24,13.60
2020,05,29,02,25,13.60
2020,05,29,02,26,13.60
2020,05,29,02,27,13.50
2020,05,29,02,28,13.50
2020,05,29,02,29,13.50
2020,05,29,02,30,13.50
2020,05,29,02,31,13.50
2020,05,29,02,32,13.50
2020,05,29,02,33,13.50
2020,05,29,02,34,13.50
2020,05,29,02,35,13.50
2020,05,29,02,36,13.50
2020,05,29,02,37,13.50
2020,05,29,02,38,13.50
2020,05,29,02,39,13.60
2020,05,29,02,40,13.60
2020,05,29,02,41,13.60
2020,05,29,02,42,13.60
2020,05,29,02,43,13.60
2020,05,29,02,44,13.60
2020,05,29,02,45,13.60
2020,05,29,02,46,13.60
2020,05,29,02,47,13.70
2020,05,29,02,48,13.70
2020,05,29,02,49,13.70
2020,05,29,02,50,13.70
2020,05,29,02,51,13.70
2020,05,29,02,52,13.70
2020,05,29,02,53,13.70
2020,05,29,02,54,13.70
2020,05,29,02,55,13.70
2020,05,29,02,56,13.70
2020,05,29,02,57,13.70
2020,05,29,02,58,13.70
2020,05,29,02,59,13.70
2020,05,29,03,00,13.70
2020,05,29,03,01,13.70
2020,05,29,03,02,13.60
2020,05,29,03,03,13.60
2020,05,29,03,04,13.60
2020,05,29,03,05,13.50
2020,05,29,03,06,13.50
2020,05,29,03,07,13.40
2020,05,29,03,08,13.40
2020,05,29,03,09,13.40
2020,05,29,03,10,13.30
2020,05,29,03,11,13.30
2020,05,29,03,12,13.30
2020,05,29,03,13,13.30
2020,05,29,03,14,13.30
2020,05,29,03,15,13.20
2020,05,29,03,16,13.20
2020,05,29,03,17,13.20
2020,05,29,03,18,13.20
2020,05,29,03,19,13.20
2020,05,29,03,20,13.20
2020,05,29,03,21,13.20
2020,05,29,03,22,13.20
2020,05,29,03,23,13.10
2020,05,29,03,24,13.10
2020,05,29,03,25,13.10
2020,05,29,03,26,13.10
2020,05,29,03,27,13.00
2020,05,29,03,28,13.00
2020,05,29,03,29,13.00
2020,05,29,03,30,12.90
2020,05,29,03,31,12.90
2020,05,29,03,32,12.90
2020,05,29,03,33,12.90
2020,05,29,03,34,12.90
2020,05,29,03,35,12.90
2020,05,29,03,36,12.90
2020,05,29,03,37,12.90
2020,05,29,03,38,12.90
2020,05,29,03,39,12.80
2020,05,29,03,40,12.80
2020,05,29,03,41,12.80
2020,05,29,03,42,12.80
2020,05,29,03,43,12.80
2020,05,29,03,44,12.80
2020,05,29,03,45,12.80
2020,05,29,03,46,12.80
2020,05,29,03,47,12.80
2020,05,29,03,48,12.80
2020,05,29,03,49,12.80
2020,05,29,03,50,12.70
2020,05,29,03,51,12.70
2020,05,29,03,52,12.70
2020,05,29,03,53,12.60
2020,05,29,03,54,12.60
2020,05,29,03,55,12.60
2020,05,29,03,56,12.60
2020,05,29,03,57,12.60
2020,05,29,03,58,12.50
2020,05,29,03,59,12.50
2020,05,29,04,00,12.50
2020,05,29,04,01,12.50
2020,05,29,04,02,12.40
2020,05,29,04,03,12.40
2020,05,29,04,04,12.40
2020,05,29,04,05,12.40
2020,05,29,04,06,12.40
2020,05,29,04,07,12.30
2020,05,29,04,08,12.30
2020,05,29,04,09,12.30
2020,05,29,04,10,12.30
2020,05,29,04,11,12.20
2020,05,29,04,12,12.20
2020,05,29,04,13,12.10
2020,05,29,04,14,12.10
2020,05,29,04,15,12.10
2020,05,29,04,16,12.10
2020,05,29,04,17,12.00
2020,05,29,04,18,12.00
2020,05,29,04,19,12.00
2020,05,29,04,20,12.00
2020,05,29,04,21,11.90
2020,05,29,04,22,11.90
2020,05,29,04,23,11.90
2020,05,29,04,24,11.90
2020,05,29,04,25,11.90
2020,05,29,04,26,11.80
2020,05,29,04,27,11.80
2020,05,29,04,28,11.80
2020,05,29,04,29,11.80
2020,05,29,04,30,11.80
2020,05,29,04,31,11.80
2020,05,29,04,32,11.70
2020,05,29,04,33,11.70
2020,05,29,04,34,11.70
2020,05,29,04,35,11.70
2020,05,29,04,36,11.70
2020,05,29,04,37,11.70
2020,05,29,04,38,11.70
2020,05,29,04,39,11.70
2020,05,29,04,40,11.70
2020,05,29,04,41,11.70
2020,05,29,04,42,11.70
2020,05,29,04,43,11.70
2020,05,29,04,44,11.60
2020,05,29,04,45,11.60
2020,05,29,04,46,11.60
2020,05,29,04,47,11.60
2020,05,29,04,48,11.60
2020,05,29,04,49,11.60
2020,05,29,04,50,11.60
2020,05,29,04,51,11.60
2020,05,29,04,52,11.50
2020,05,29,04,53,11.50
2020,05,29,04,54,11.50
2020,05,29,04,55,11.50
2020,05,29,04,56,11.50
2020,05,29,04,57,11.50
2020,05,29,04,58,11.50
2020,05,29,04,59,11.50
2020,05,29,05,00,11.50
2020,05,29,05,01,11.50
2020,05,29,05,02,11.50
2020,05,29,05,03,11.50
2020,05,29,05,04,11.50
2020,05,29,05,05,11.50
2020,05,29,05,06,11.50
2020,05,29,05,07,11.50
2020,05,29,05,08,11.50
2020,05,29,05,09,11.50
2020,05,29,05,10,11.50
2020,05,29,05,11,11.50
2020,05,29,05,12,11.40
2020,05,29,05,13,11.40
2020,05,29,05,14,11.40
2020,05,29,05,15,11.40
2020,05,29,05,16,11.40
2020,05,29,05,17,11.40
2020,05,29,05,18,11.40
2020,05,29,05,19,11.40
2020,05,29,05,20,11.40
2020,05,29,05,21,11.40
2020,05,29,05,22,11.40
2020,05,29,05,23,11.30
2020,05,29,05,24,11.30
2020,05,29,05,25,11.30
2020,05,29,05,26,11.30
2020,05,29,05,27,11.30
2020,05,29,05,28,11.30
2020,05,29,05,29,11.30
2020,05,29,05,30,11.30
2020,05,29,05,31,11.30
2020,05,29,05,32,11.30
2020,05,29,05,33,11.30
2020,05,29,05,34,11.30
2020,05,29,05,35,11.30
2020,05,29,05,36,11.30
2020,05,29,05,37,11.30
2020,05,29,05,38,11.30
2020,05,29,05,39,11.30
2020,05,29,05,40,11.30
2020,05,29,05,41,11.30
2020,05,29,05,42,11.30
2020,05,29,05,43,11.30
2020,05,29,05,44,11.30
2020,05,29,05,45,11.30
2020,05,29,05,46,11.30
2020,05,29,05,47,11.30
2020,05,29,05,48,11.30
2020,05,29,05,49,11.30
2020,05,29,05,50,11.30
2020,05,29,05,51,11.30
2020,05,29,05,52,11.30
2020,05,29,05,53,11.30
2020,05,29,05,54,11.30
2020,05,29,05,55,11.40
2020,05,29,05,56,11.40
2020,05,29,05,57,11.40
2020,05,29,05,58,11.50
2020,05,29,05,59,11.50
2020,05,29,06,00,11.50
2020,05,29,06,01,11.50
2020,05,29,06,02,11.50
2020,05,29,06,03,11.60
2020,05,29,06,04,11.60
2020,05,29,06,05,11.60
2020,05,29,06,06,11.60
2020,05,29,06,07,11.70
2020,05,29,06,08,11.70
2020,05,29,06,09,11.80
2020,05,29,06,10,11.80
2020,05,29,06,11,11.90
2020,05,29,06,12,11.90
2020,05,29,06,13,12.00
2020,05,29,06,14,12.00
2020,05,29,06,15,12.10
2020,05,29,06,16,12.20
2020,05,29,06,17,12.30
2020,05,29,06,18,12.50
2020,05,29,06,19,12.70
2020,05,29,06,20,12.90
2020,05,29,06,21,12.90
2020,05,29,06,22,13.00
2020,05,29,06,23,13.10
2020,05,29,06,24,13.20
2020,05,29,06,25,13.30
2020,05,29,06,26,13.50
2020,05,29,06,27,13.60
2020,05,29,06,28,13.80
2020,05,29,06,29,13.80
2020,05,29,06,30,13.90
2020,05,29,06,31,14.00
2020,05,29,06,32,14.00
2020,05,29,06,33,14.10
2020,05,29,06,34,14.10
2020,05,29,06,35,14.10
2020,05,29,06,36,14.20
2020,05,29,06,37,14.20
2020,05,29,06,38,14.20
2020,05,29,06,39,14.30
2020,05,29,06,40,14.30
2020,05,29,06,41,14.30
2020,05,29,06,42,14.30
2020,05,29,06,43,14.30
2020,05,29,06,44,14.30
2020,05,29,06,45,14.30
2020,05,29,06,46,14.30
2020,05,29,06,47,14.30
2020,05,29,06,48,14.30
2020,05,29,06,49,14.30
2020,05,29,06,50,14.30
2020,05,29,06,51,14.20
2020,05,29,06,52,14.20
2020,05,29,06,53,14.20
2020,05,29,06,54,14.20
2020,05,29,06,55,14.20
2020,05,29,06,56,14.20
2020,05,29,06,57,14.20
2020,05,29,06,58,14.20
2020,05,29,06,59,14.20
2020,05,29,07,00,14.20
2020,05,29,07,01,14.20
2020,05,29,07,02,14.20
2020,05,29,07,03,14.10
2020,05,29,07,04,14.10
2020,05,29,07,05,14.10
2020,05,29,07,06,14.10
2020,05,29,07,07,14.10
2020,05,29,07,08,14.10
2020,05,29,07,09,14.10
2020,05,29,07,10,14.10
2020,05,29,07,11,14.10
2020,05,29,07,12,14.10
2020,05,29,07,13,14.10
2020,05,29,07,14,14.10
2020,05,29,07,15,14.10
2020,05,29,07,16,14.20
2020,05,29,07,17,14.20
2020,05,29,07,18,14.20
2020,05,29,07,19,14.20
2020,05,29,07,20,14.20
2020,05,29,07,21,14.30
2020,05,29,07,22,14.30
2020,05,29,07,23,14.30
2020,05,29,07,24,14.40
2020,05,29,07,25,14.40
2020,05,29,07,26,14.50
2020,05,29,07,27,14.50
2020,05,29,07,28,14.60
2020,05,29,07,29,14.60
2020,05,29,07,30,14.70
2020,05,29,07,31,14.70
2020,05,29,07,32,14.70
2020,05,29,07,33,14.80
2020,05,29,07,34,14.80
2020,05,29,07,35,14.90
2020,05,29,07,36,14.90
2020,05,29,07,37,15.00
2020,05,29,07,38,15.00
2020,05,29,07,39,15.10
2020,05,29,07,40,15.10
2020,05,29,07,41,15.20
2020,05,29,07,42,15.20
2020,05,29,07,43,15.20
2020,05,29,07,44,15.30
2020,05,29,07,45,15.30
2020,05,29,07,46,15.30
2020,05,29,07,47,15.40
2020,05,29,07,48,15.40
2020,05,29,07,49,15.40
2020,05,29,07,50,15.40
2020,05,29,07,51,15.50
2020,05,29,07,52,15.50
2020,05,29,07,53,15.60
2020,05,29,07,54,15.60
2020,05,29,07,55,15.60
2020,05,29,07,56,15.70
2020,05,29,07,57,15.70
2020,05,29,07,58,15.70
2020,05,29,07,59,15.70
2020,05,29,08,00,15.80
2020,05,29,08,01,15.80
2020,05,29,08,02,15.80
2020,05,29,08,03,15.80
2020,05,29,08,04,15.80
2020,05,29,08,05,15.90
2020,05,29,08,06,15.90
2020,05,29,08,07,15.90
2020,05,29,08,08,15.90
2020,05,29,08,09,15.90
2020,05,29,08,10,15.90
2020,05,29,08,11,15.90
2020,05,29,08,12,16.00
2020,05,29,08,13,16.00
2020,05,29,08,14,16.00
2020,05,29,08,15,16.00
2020,05,29,08,16,16.10
2020,05,29,08,17,16.10
2020,05,29,08,18,16.10
2020,05,29,08,19,16.10
2020,05,29,08,20,16.20
2020,05,29,08,21,16.20
2020,05,29,08,22,16.20
2020,05,29,08,23,16.20
2020,05,29,08,24,16.30
2020,05,29,08,25,16.30
2020,05,29,08,26,16.30
2020,05,29,08,27,16.30
2020,05,29,08,28,16.30
2020,05,29,08,29,16.30
2020,05,29,08,30,16.30
2020,05,29,08,31,16.30
2020,05,29,08,32,16.30
2020,05,29,08,33,16.30
2020,05,29,08,34,16.30
2020,05,29,08,35,16.30
2020,05,29,08,36,16.30
2020,05,29,08,37,16.40
2020,05,29,08,38,16.40
2020,05,29,08,39,16.40
2020,05,29,08,40,16.40
2020,05,29,08,41,16.40
2020,05,29,08,42,16.40
2020,05,29,08,43,16.40
2020,05,29,08,44,16.40
2020,05,29,08,45,16.50
2020,05,29,08,46,16.50
2020,05,29,08,47,16.60
2020,05,29,08,48,16.60
2020,05,29,08,49,16.60
2020,05,29,08,50,16.70
2020,05,29,08,51,16.70
2020,05,29,08,52,16.70
2020,05,29,08,53,16.70
2020,05,29,08,54,16.80
2020,05,29,08,55,16.80
2020,05,29,08,56,16.80
2020,05,29,08,57,16.90
2020,05,29,08,58,16.90
2020,05,29,08,59,16.90
2020,05,29,09,00,17.00
2020,05,29,09,01,17.00
2020,05,29,09,02,17.00
2020,05,29,09,03,17.00
2020,05,29,09,04,17.00
2020,05,29,09,05,17.00
2020,05,29,09,06,17.00
2020,05,29,09,07,17.00
2020,05,29,09,08,17.00
2020,05,29,09,09,17.00
2020,05,29,09,10,17.00
2020,05,29,09,11,16.90
2020,05,29,09,12,16.90
2020,05,29,09,13,16.80
2020,05,29,09,14,16.80
2020,05,29,09,15,16.70
2020,05,29,09,16,16.70
2020,05,29,09,17,16.70
2020,05,29,09,18,16.70
2020,05,29,09,19,16.70
2020,05,29,09,20,16.70
2020,05,29,09,21,16.80
2020,05,29,09,22,16.80
2020,05,29,09,23,16.80
2020,05,29,09,24,16.80
2020,05,29,09,25,16.80
2020,05,29,09,26,16.80
2020,05,29,09,27,16.80
2020,05,29,09,28,16.80
2020,05,29,09,29,16.80
2020,05,29,09,30,16.80
2020,05,29,09,31,16.80
2020,05,29,09,32,16.70
2020,05,29,09,33,16.70
2020,05,29,09,34,16.60
2020,05,29,09,35,16.60
2020,05,29,09,36,16.50
2020,05,29,09,37,16.50
2020,05,29,09,38,16.40
2020,05,29,09,39,16.40
2020,05,29,09,40,16.40
2020,05,29,09,41,16.40
2020,05,29,09,42,16.40
2020,05,29,09,43,16.40
2020,05,29,09,44,16.40
2020,05,29,09,45,16.40
2020,05,29,09,46,16.40
2020,05,29,09,47,16.40
2020,05,29,09,48,16.40
2020,05,29,09,49,16.40
2020,05,29,09,50,16.40
2020,05,29,09,51,16.30
2020,05,29,09,52,16.30
2020,05,29,09,53,16.40
2020,05,29,09,54,16.40
2020,05,29,09,55,16.40
2020,05,29,09,56,16.40
2020,05,29,09,57,16.40
2020,05,29,09,58,16.30
2020,05,29,09,59,16.30
2020,05,29,10,00,16.30
2020,05,29,10,01,16.30
2020,05,29,10,02,16.30
2020,05,29,10,03,16.30
2020,05,29,10,04,16.30
2020,05,29,10,05,16.30
2020,05,29,10,06,16.30
2020,05,29,10,07,16.30
2020,05,29,10,08,16.30
2020,05,29,10,09,16.30
2020,05,29,10,10,16.30
2020,05,29,10,11,16.30
2020,05,29,10,12,16.30
2020,05,29,10,13,16.30
2020,05,29,10,14,16.40
2020,05,29,10,15,16.40
2020,05,29,10,16,16.40
2020,05,29,10,17,16.50
2020,05,29,10,18,16.50
2020,05,29,10,19,16.60
2020,05,29,10,20,16.60
2020,05,29,10,21,16.60
2020,05,29,10,22,16.60
2020,05,29,10,23,16.70
2020,05,29,10,24,16.70
2020,05,29,10,25,16.70
2020,05,29,10,26,16.70
2020,05,29,10,27,16.70
2020,05,29,10,28,16.70
2020,05,29,10,29,16.80
2020,05,29,10,30,16.80
2020,05,29,10,31,16.80
2020,05,29,10,32,16.80
2020,05,29,10,33,16.80
2020,05,29,10,34,16.80
2020,05,29,10,35,16.70
2020,05,29,10,36,16.70
2020,05,29,10,37,16.70
2020,05,29,10,38,16.70
2020,05,29,10,39,16.60
2020,05,29,10,40,16.60
2020,05,29,10,41,16.60
2020,05,29,10,42,16.60
2020,05,29,10,43,16.60
2020,05,29,10,44,16.60
2020,05,29,10,45,16.70
2020,05,29,10,46,16.70
2020,05,29,10,47,16.70
2020,05,29,10,48,16.70
2020,05,29,10,49,16.70
2020,05,29,10,50,16.80
2020,05,29,10,51,16.80
2020,05,29,10,52,16.80
2020,05,29,10,53,16.90
2020,05,29,10,54,16.90
2020,05,29,10,55,17.00
2020,05,29,10,56,17.10
2020,05,29,10,57,17.10
2020,05,29,10,58,17.20
2020,05,29,10,59,17.20
2020,05,29,11,00,17.30
2020,05,29,11,01,17.40
2020,05,29,11,02,17.40
2020,05,29,11,03,17.50
2020,05,29,11,04,17.50
2020,05,29,11,05,17.50
2020,05,29,11,06,17.60
2020,05,29,11,07,17.60
2020,05,29,11,08,17.60
2020,05,29,11,09,17.60
2020,05,29,11,10,17.70
2020,05,29,11,11,17.70
2020,05,29,11,12,17.70
2020,05,29,11,13,17.70
2020,05,29,11,14,17.70
2020,05,29,11,15,17.60
2020,05,29,11,16,17.60
2020,05,29,11,17,17.60
2020,05,29,11,18,17.60
2020,05,29,11,19,17.60
2020,05,29,11,20,17.60
2020,05,29,11,21,17.60
2020,05,29,11,22,17.60
2020,05,29,11,23,17.60
2020,05,29,11,24,17.60
2020,05,29,11,25,17.60
2020,05,29,11,26,17.50
2020,05,29,11,27,17.50
2020,05,29,11,28,17.50
2020,05,29,11,29,17.50
2020,05,29,11,30,17.50
2020,05,29,11,31,17.40
2020,05,29,11,32,17.40
2020,05,29,11,33,17.40
2020,05,29,11,34,17.40
2020,05,29,11,35,17.40
2020,05,29,11,36,17.40
2020,05,29,11,37,17.30
2020,05,29,11,38,17.30
2020,05,29,11,39,17.30
2020,05,29,11,40,17.30
2020,05,29,11,41,17.40
2020,05,29,11,42,17.40
2020,05,29,11,43,17.30
2020,05,29,11,44,17.30
2020,05,29,11,45,17.30
2020,05,29,11,46,17.30
2020,05,29,11,47,17.30
2020,05,29,11,48,17.20
2020,05,29,11,49,17.20
2020,05,29,11,50,17.20
2020,05,29,11,51,17.20
2020,05,29,11,52,17.20
2020,05,29,11,53,17.20
2020,05,29,11,54,17.20
2020,05,29,11,55,17.20
2020,05,29,11,56,17.30
2020,05,29,11,57,17.30
2020,05,29,11,58,17.30
2020,05,29,11,59,17.40
2020,05,29,12,00,17.40
2020,05,29,12,01,17.50
2020,05,29,12,02,17.50
2020,05,29,12,03,17.60
2020,05,29,12,04,17.60
2020,05,29,12,05,17.60
2020,05,29,12,06,17.60
2020,05,29,12,07,17.70
2020,05,29,12,08,17.70
2020,05,29,12,09,17.70
2020,05,29,12,10,17.70
2020,05,29,12,11,17.60
2020,05,29,12,12,17.50
2020,05,29,12,13,17.50
2020,05,29,12,14,17.40
2020,05,29,12,15,17.40
2020,05,29,12,16,17.40
2020,05,29,12,17,17.40
2020,05,29,12,18,17.40
2020,05,29,12,19,17.40
2020,05,29,12,20,17.40
2020,05,29,12,21,17.40
2020,05,29,12,22,17.40
2020,05,29,12,23,17.50
2020,05,29,12,24,17.50
2020,05,29,12,25,17.60
2020,05,29,12,26,17.60
2020,05,29,12,27,17.70
2020,05,29,12,28,17.70
2020,05,29,12,29,17.60
2020,05,29,12,30,17.60
2020,05,29,12,31,17.50
2020,05,29,12,32,17.50
2020,05,29,12,33,17.50
2020,05,29,12,34,17.60
2020,05,29,12,35,17.60
2020,05,29,12,36,17.60
2020,05,29,12,37,17.60
2020,05,29,12,38,17.60
2020,05,29,12,39,17.60
2020,05,29,12,40,17.60
2020,05,29,12,41,17.60
2020,05,29,12,42,17.60
2020,05,29,12,43,17.60
2020,05,29,12,44,17.60
2020,05,29,12,45,17.60
2020,05,29,12,46,17.60
2020,05,29,12,47,17.60
2020,05,29,12,48,17.70
2020,05,29,12,49,17.70
2020,05,29,12,50,17.80
2020,05,29,12,51,17.80
2020,05,29,12,52,17.70
2020,05,29,12,53,17.70
2020,05,29,12,54,17.70
2020,05,29,12,55,17.70
2020,05,29,12,56,17.70
2020,05,29,12,57,17.60
2020,05,29,12,58,17.60
2020,05,29,12,59,17.60
2020,05,29,13,00,17.60
2020,05,29,13,01,17.60
2020,05,29,13,02,17.60
2020,05,29,13,03,17.70
2020,05,29,13,04,17.70
2020,05,29,13,05,17.70
2020,05,29,13,06,17.80
2020,05,29,13,07,17.90
2020,05,29,13,08,17.90
2020,05,29,13,09,18.10
2020,05,29,13,10,18.10
2020,05,29,13,11,18.20
2020,05,29,13,12,18.20
2020,05,29,13,13,18.20
2020,05,29,13,14,18.30
2020,05,29,13,15,18.30
2020,05,29,13,16,18.30
2020,05,29,13,17,18.30
2020,05,29,13,18,18.20
2020,05,29,13,19,18.20
2020,05,29,13,20,18.30
2020,05,29,13,21,18.30
2020,05,29,13,22,18.40
2020,05,29,13,23,18.40
2020,05,29,13,24,18.40
2020,05,29,13,25,18.50
2020,05,29,13,26,18.60
2020,05,29,13,27,18.60
2020,05,29,13,28,18.60
2020,05,29,13,29,18.60
2020,05,29,13,30,18.70
2020,05,29,13,31,18.70
2020,05,29,13,32,18.70
2020,05,29,13,33,18.60
2020,05,29,13,34,18.60
2020,05,29,13,35,18.60
2020,05,29,13,36,18.60
2020,05,29,13,37,18.60
2020,05,29,13,38,18.60
2020,05,29,13,39,18.70
2020,05,29,13,40,18.70
2020,05,29,13,41,18.70
2020,05,29,13,42,18.70
2020,05,29,13,43,18.80
2020,05,29,13,44,18.80
2020,05,29,13,45,18.80
2020,05,29,13,46,18.80
2020,05,29,13,47,18.80
2020,05,29,13,48,18.80
2020,05,29,13,49,18.80
2020,05,29,13,50,18.80
2020,05,29,13,51,18.80
2020,05,29,13,52,18.80
2020,05,29,13,53,18.80
2020,05,29,13,54,18.80
2020,05,29,13,55,18.90
2020,05,29,13,56,18.90
2020,05,29,13,57,18.80
2020,05,29,13,58,18.80
2020,05,29,13,59,18.80
2020,05,29,14,00,18.80
2020,05,29,14,01,18.80
2020,05,29,14,02,18.80
2020,05,29,14,03,18.80
2020,05,29,14,04,18.80
2020,05,29,14,05,18.90
2020,05,29,14,06,18.90
2020,05,29,14,07,19.00
2020,05,29,14,08,19.00
2020,05,29,14,09,18.90
2020,05,29,14,10,18.90
2020,05,29,14,11,18.90
2020,05,29,14,12,19.00
2020,05,29,14,13,19.00
2020,05,29,14,14,19.10
2020,05,29,14,15,19.10
2020,05,29,14,16,19.10
2020,05,29,14,17,19.00
2020,05,29,14,18,18.90
2020,05,29,14,19,18.90
2020,05,29,14,20,18.80
2020,05,29,14,21,18.90
2020,05,29,14,22,18.90
2020,05,29,14,23,18.90
2020,05,29,14,24,18.90
2020,05,29,14,25,18.90
2020,05,29,14,26,18.90
2020,05,29,14,27,18.90
2020,05,29,14,28,18.90
2020,05,29,14,29,19.00
2020,05,29,14,30,19.00
2020,05,29,14,31,19.10
2020,05,29,14,32,19.10
2020,05,29,14,33,19.10
2020,05,29,14,34,19.20
2020,05,29,14,35,19.20
2020,05,29,14,36,19.20
2020,05,29,14,37,19.20
2020,05,29,14,38,19.20
2020,05,29,14,39,19.20
2020,05,29,14,40,19.20
2020,05,29,14,41,19.20
2020,05,29,14,42,19.20
2020,05,29,14,43,19.30
2020,05,29,14,44,19.30
2020,05,29,14,45,19.30
2020,05,29,14,46,19.40
2020,05,29,14,47,19.40
2020,05,29,14,48,19.40
2020,05,29,14,49,19.40
2020,05,29,14,50,19.40
2020,05,29,14,51,19.30
2020,05,29,14,52,19.20
2020,05,29,14,53,19.20
2020,05,29,14,54,19.10
2020,05,29,14,55,19.10
2020,05,29,14,56,19.10
2020,05,29,14,57,19.10
2020,05,29,14,58,19.00
2020,05,29,14,59,18.90
2020,05,29,15,00,18.80
2020,05,29,15,01,18.80
2020,05,29,15,02,18.70
2020,05,29,15,03,18.70
2020,05,29,15,04,18.70
2020,05,29,15,05,18.80
2020,05,29,15,06,18.80
2020,05,29,15,07,18.80
2020,05,29,15,08,18.80
2020,05,29,15,09,18.90
2020,05,29,15,10,18.90
2020,05,29,15,11,18.90
2020,05,29,15,12,18.90
2020,05,29,15,13,18.90
2020,05,29,15,14,19.00
2020,05,29,15,15,19.00
2020,05,29,15,16,19.00
2020,05,29,15,17,19.10
2020,05,29,15,18,19.10
2020,05,29,15,19,19.20
2020,05,29,15,20,19.20
2020,05,29,15,21,19.30
2020,05,29,15,22,19.30
2020,05,29,15,23,19.40
2020,05,29,15,24,19.60
2020,05,29,15,25,19.70
2020,05,29,15,26,19.80
2020,05,29,15,27,19.90
2020,05,29,15,28,19.90
2020,05,29,15,29,20.00
2020,05,29,15,30,20.00
2020,05,29,15,31,20.00
2020,05,29,15,32,20.00
2020,05,29,15,33,20.00
2020,05,29,15,34,20.00
2020,05,29,15,35,20.00
2020,05,29,15,36,20.00
2020,05,29,15,37,20.00
2020,05,29,15,38,20.00
2020,05,29,15,39,20.00
2020,05,29,15,40,20.00
2020,05,29,15,41,20.00
2020,05,29,15,42,20.00
2020,05,29,15,43,20.00
2020,05,29,15,44,20.00
2020,05,29,15,45,20.00
2020,05,29,15,46,20.00
2020,05,29,15,47,20.00
2020,05,29,15,48,19.90
2020,05,29,15,49,19.90
2020,05,29,15,50,19.90
2020,05,29,15,51,19.80
2020,05,29,15,52,19.80
2020,05,29,15,53,19.80
2020,05,29,15,54,19.80
2020,05,29,15,55,19.80
2020,05,29,15,56,19.70
2020,05,29,15,57,19.60
2020,05,29,15,58,19.50
2020,05,29,15,59,19.50
2020,05,29,16,00,19.40
2020,05,29,16,01,19.40
2020,05,29,16,02,19.40
2020,05,29,16,03,19.40
2020,05,29,16,04,19.40
2020,05,29,16,05,19.40
2020,05,29,16,06,19.50
2020,05,29,16,07,19.50
2020,05,29,16,08,19.50
2020,05,29,16,09,19.40
2020,05,29,16,10,19.50
2020,05,29,16,11,19.50
2020,05,29,16,12,19.60
2020,05,29,16,13,19.60
2020,05,29,16,14,19.70
2020,05,29,16,15,19.80
2020,05,29,16,16,19.90
2020,05,29,16,17,19.90
2020,05,29,16,18,20.00
2020,05,29,16,19,20.10
2020,05,29,16,20,20.10
2020,05,29,16,21,20.20
2020,05,29,16,22,20.20
2020,05,29,16,23,20.20
2020,05,29,16,24,20.20
2020,05,29,16,25,20.20
2020,05,29,16,26,20.10
2020,05,29,16,27,20.00
2020,05,29,16,28,19.90
2020,05,29,16,29,19.90
2020,05,29,16,30,19.80
2020,05,29,16,31,19.80
2020,05,29,16,32,19.70
2020,05,29,16,33,19.70
2020,05,29,16,34,19.70
2020,05,29,16,35,19.60
2020,05,29,16,36,19.60
2020,05,29,16,37,19.60
2020,05,29,16,38,19.60
2020,05,29,16,39,19.60
2020,05,29,16,40,19.60
2020,05,29,16,41,19.60
2020,05,29,16,42,19.60
2020,05,29,16,43,19.60
2020,05,29,16,44,19.70
2020,05,29,16,45,19.70
2020,05,29,16,46,19.70
2020,05,29,16,47,19.80
2020,05,29,16,48,19.80
2020,05,29,16,49,19.80
2020,05,29,16,50,19.80
2020,05,29,16,51,19.80
2020,05,29,16,52,19.80
2020,05,29,16,53,19.80
2020,05,29,16,54,19.80
2020,05,29,16,55,19.80
2020,05,29,16,56,19.80
2020,05,29,16,57,19.80
2020,05,29,16,58,19.90
2020,05,29,16,59,19.90
2020,05,29,17,00,19.90
2020,05,29,17,01,19.90
2020,05,29,17,02,20.00
2020,05,29,17,03,20.00
2020,05,29,17,04,20.00
2020,05,29,17,05,20.10
2020,05,29,17,06,20.10
2020,05,29,17,07,20.10
2020,05,29,17,08,20.20
2020,05,29,17,09,20.30
2020,05,29,17,10,20.30
2020,05,29,17,11,20.40
2020,05,29,17,12,20.40
2020,05,29,17,13,20.50
2020,05,29,17,14,20.60
2020,05,29,17,15,20.60
2020,05,29,17,16,20.70
2020,05,29,17,17,20.70
2020,05,29,17,18,20.80
2020,05,29,17,19,20.80